Inquirer Daily News

Weather

Get conditions and forecasts for any City, State, ZIP code or Country:  
Northeast Philadelphia, PA
on Saturday, December 15, 2012

Saturday
Previous Day Next Day
Daily Summary
 ActualAverage (KTTN)Record (KTTN)
Temperature
Mean Temperature °F 35°F  
Max Temperature 46°F 43°F 66°F (1971)
Min Temperature 30°F 28°F 10°F (1914)
Degree Days
Heating Degree Days 27 30  
Month to date heating degree days 409  
Since 1 July heating degree days 1385  
Cooling Degree Days 0 0  
Month to date cooling degree days 0  
Year to date cooling degree days 965  
Moisture
Dew Point 30°F   
Average Humidity 68    
Maximum Humidity 79    
Minimum Humidity 52    
Precipitation
Precipitation 0.00 in 0.13 in 1.20 in (1981)
Month to date precipitation 2.05  
Year to date precipitation 44.79  
Wind
Wind Speed 3 mph   
Max Wind Speed 8 mph   
Max Gust Speed mph   
Visibility 10 miles   
Events     

Key: T is trace of precipitation, MM is missing value
Source: NWS Daily Summary
Time(EST)TemperatureDew PointHumidity Pressure Visibility Wind DirectionWind SpeedGust SpeedPrecipitationEvents Conditions
12:54 AM 34.0°F 24.1°F 67% 30.27 in 10.0 miles NNW 4.6 mph - N/A   Clear
1:54 AM 35.1°F 25.0°F 67% 30.28 in 10.0 miles North 3.5 mph - N/A   Clear
2:54 AM 33.1°F 25.0°F 72% 30.27 in 10.0 miles North 6.9 mph - N/A   Clear
3:54 AM 34.0°F 25.0°F 70% 30.27 in 10.0 miles Calm Calm - N/A   Clear
4:54 AM 30.9°F 24.1°F 76% 30.29 in 10.0 miles Calm Calm - N/A   Clear
5:54 AM 34.0°F 25.0°F 70% 30.30 in 10.0 miles Calm Calm - N/A   Clear
6:54 AM 33.1°F 25.0°F 72% 30.30 in 10.0 miles NNE 4.6 mph - N/A   Clear
7:54 AM 35.1°F 27.0°F 72% 30.32 in 10.0 miles Calm Calm - N/A   Clear
8:54 AM 37.9°F 30.0°F 73% 30.33 in 8.0 miles NNE 3.5 mph - N/A   Clear
9:54 AM 42.1°F 30.0°F 62% 30.35 in 10.0 miles NE 6.9 mph - N/A   Clear
10:54 AM 45.0°F 30.0°F 56% 30.33 in 10.0 miles Variable 4.6 mph - N/A   Clear
11:54 AM 45.0°F 30.0°F 56% 30.30 in 10.0 miles ESE 4.6 mph - N/A   Clear
12:54 PM 46.0°F 30.9°F 56% 30.28 in 10.0 miles SSE 3.5 mph - N/A   Clear
1:54 PM 46.9°F 32.0°F 56% 30.26 in 10.0 miles ESE 4.6 mph - N/A   Clear
2:54 PM 46.9°F 30.0°F 52% 30.25 in 10.0 miles Calm Calm - N/A   Clear
3:54 PM 46.9°F 30.0°F 52% 30.25 in 10.0 miles Calm Calm - N/A   Clear
4:54 PM 45.0°F 30.0°F 56% 30.24 in 10.0 miles Calm Calm - N/A   Clear
5:54 PM 39.9°F 30.9°F 70% 30.24 in 10.0 miles NE 3.5 mph - N/A   Clear
6:54 PM 43.0°F 36.0°F 76% 30.24 in 10.0 miles ESE 8.1 mph - N/A   Clear
7:54 PM 43.0°F 35.1°F 74% 30.24 in 10.0 miles SE 3.5 mph - N/A   Clear
8:54 PM 42.1°F 35.1°F 76% 30.24 in 10.0 miles East 5.8 mph - N/A   Scattered Clouds
9:54 PM 42.1°F 35.1°F 76% 30.22 in 10.0 miles East 6.9 mph - N/A   Overcast
10:54 PM 42.1°F 35.1°F 76% 30.23 in 10.0 miles Calm Calm - N/A   Overcast
11:04 PM 42.8°F 35.6°F 76% 30.22 in 10.0 miles East 3.5 mph - N/A   Overcast
11:11 PM 42.8°F 35.6°F 76% 30.22 in 10.0 miles Calm Calm - N/A   Overcast
11:54 PM 42.1°F 36.0°F 79% 30.19 in 10.0 miles SE 4.6 mph - N/A   Mostly Cloudy
Astronomy
Sunrise:07:15 AM (EST) Moon Rise:09:06 AM (EST)12/15
Sunset:04:35 PM (EST) Moon Set:07:36 PM (EST)12/15
Moon Phase
Dec. 15 Dec. 20 Dec. 28 Jan. 04 Jan. 11

Copyright © 2014 The Weather Underground, Inc.